This is the latest recevied weather packets stored in our database for station/object KC5DAQ-25. If no packets are shown the sender has not sent any weather packets the latest 10 day(s).
| Time | Temp. | Humidity | Pressure | Rain* | Wind** | Luminosity | Snow |
|---|---|---|---|---|---|---|---|
| 1777400044 | 32.22° C | 68% | 1004.3 hPa | 0 mm | - | 1083 W/m² | - |
| 1777399985 | 32.22° C | 67% | 1004.4 hPa | 0 mm | - | 1057 W/m² | - |
| 1777399923 | 32.22° C | 67% | 1004.3 hPa | 0 mm | - | 1057 W/m² | - |
| 1777399864 | 32.22° C | 67% | 1004.4 hPa | 0 mm | - | 1161 W/m² | - |
| 1777399806 | 32.22° C | 67% | 1004.3 hPa | 0 mm | - | 1161 W/m² | - |
| 1777399744 | 32.22° C | 67% | 1004.4 hPa | 0 mm | - | 1161 W/m² | - |
| 1777399683 | 32.22° C | 67% | 1004.4 hPa | 0 mm | - | 1099 W/m² | - |
| 1777399624 | 32.22° C | 67% | 1004.5 hPa | 0 mm | - | 1099 W/m² | - |
| 1777399563 | 32.22° C | 67% | 1004.5 hPa | 0 mm | - | 1099 W/m² | - |
| 1777399503 | 32.22° C | 67% | 1004.4 hPa | 0 mm | - | 1099 W/m² | - |
| 1777399443 | 32.22° C | 69% | 1004.5 hPa | 0 mm | - | 1099 W/m² | - |
| 1777399383 | 32.22° C | 69% | 1004.5 hPa | 0 mm | - | 1099 W/m² | - |
| 1777399324 | 32.22° C | 69% | 1004.5 hPa | 0 mm | - | 1099 W/m² | - |
| 1777399263 | 32.22° C | 69% | 1004.6 hPa | 0 mm | - | 1099 W/m² | - |
| 1777399206 | 32.22° C | 68% | 1004.6 hPa | 0 mm | - | 1146 W/m² | - |
| 1777399143 | 32.22° C | 68% | 1004.6 hPa | 0 mm | - | 1146 W/m² | - |
| 1777399085 | 32.22° C | 68% | 1004.6 hPa | 0 mm | - | 1138 W/m² | - |
| 1777399024 | 32.22° C | 67% | 1004.7 hPa | 0 mm | - | 1138 W/m² | - |
| 1777398963 | 32.22° C | 67% | 1004.7 hPa | 0 mm | - | 1138 W/m² | - |
| 1777398904 | 32.22° C | 66% | 1004.8 hPa | 0 mm | - | 1138 W/m² | - |
| 1777398843 | 32.22° C | 71% | 1004.8 hPa | 0 mm | - | 1138 W/m² | - |
| 1777398784 | 32.22° C | 69% | 1004.7 hPa | 0 mm | - | 1173 W/m² | - |
| 1777398723 | 32.22° C | 69% | 1004.8 hPa | 0 mm | - | 1187 W/m² | - |
| 1777398664 | 32.22° C | 69% | 1004.7 hPa | 0 mm | - | 1187 W/m² | - |
| 1777398602 | 31.67° C | 70% | 1004.8 hPa | 0 mm | - | 1187 W/m² | - |
* Rain latest hour (hover to see other rain measurements)
** Current wind speed in m/s (hover to see current wind gust speed)